N2KI-13 Weather Reports


Display with metric or nautical units.
time (UTC)temp
F
wind
direction
speed
MPH
gust
MPH
rain 1hr
in
rain 24hr
in
rain mn
in
humidity
%
barometer
mb
20260510142504 62 195 1.0 7.0 0.00 0.14 0.00 81 1012.3
20260510141504 61 267 0.0 3.0 0.00 0.14 0.00 83 1012.4
20260510140504 60 205 1.0 3.0 0.00 0.14 0.00 85 1012.3
20260510135504 59 257 0.0 5.0 0.00 0.14 0.00 88 1012.2
20260510135007 58 258 1.0 5.0 0.00 0.14 0.00 89 1012.2
20260510134504 57 225 1.0 2.0 0.00 0.14 0.00 90 1012.4
20260510134004 57 225 1.0 3.0 0.00 0.14 0.00 91 1012.5
20260510133503 56 224 0.0 3.0 0.00 0.14 0.00 92 1012.6
20260510133004 56 212 0.0 2.0 0.00 0.14 0.00 92 1012.6
20260510132503 56 200 0.0 0.0 0.00 0.14 0.00 93 1012.6
20260510132005 55 200 0.0 1.0 0.00 0.14 0.00 93 1012.6
20260510131504 55 197 0.0 0.0 0.00 0.14 0.00 93 1012.6
20260510131004 55 197 0.0 0.0 0.00 0.14 0.00 93 1012.6
20260510130504 54 197 0.0 0.0 0.00 0.14 0.00 93 1012.5
20260510130004 54 197 0.0 0.0 0.00 0.14 0.00 93 1012.4
20260510125504 53 197 0.0 0.0 0.00 0.14 0.00 93 1012.6
20260510125004 53 197 0.0 0.0 0.00 0.14 0.00 93 1012.6
20260510124504 53 197 0.0 0.0 0.00 0.14 0.00 93 1012.5
20260510124007 52 197 0.0 0.0 0.00 0.14 0.00 93 1012.5
20260510123504 52 197 0.0 0.0 0.00 0.14 0.00 93 1012.5
20260510122504 52 197 0.0 0.0 0.00 0.14 0.00 93 1012.3
20260510122004 52 197 0.0 0.0 0.00 0.14 0.00 92 1012.2
20260510121004 51 197 0.0 0.0 0.00 0.14 0.00 93 1012.1
20260510120503 51 197 0.0 0.0 0.00 0.14 0.00 93 1012.0
20260510120004 51 197 0.0 0.0 0.00 0.14 0.00 93 1012.0
20260510115504 51 197 0.0 0.0 0.00 0.14 0.00 92 1012.0
20260510114504 51 197 0.0 0.0 0.00 0.14 0.00 92 1011.9
20260510114004 51 197 0.0 0.0 0.00 0.14 0.00 92 1012.0
20260510113503 51 197 0.0 0.0 0.00 0.14 0.00 92 1011.9
20260510112504 51 197 0.0 0.0 0.00 0.14 0.00 93 1011.9
20260510112003 51 197 0.0 0.0 0.00 0.14 0.00 93 1011.9
20260510111003 50 197 0.0 0.0 0.00 0.14 0.00 93 1011.5
20260510110505 50 197 0.0 0.0 0.00 0.14 0.00 93 1011.6
20260510110004 50 197 0.0 0.0 0.00 0.14 0.00 93 1011.6
20260510105504 50 197 0.0 0.0 0.00 0.14 0.00 92 1011.6
20260510105004 49 197 0.0 0.0 0.00 0.14 0.00 93 1011.5
20260510104504 49 197 0.0 0.0 0.00 0.14 0.00 92 1011.4
20260510104004 49 197 0.0 0.0 0.00 0.14 0.00 92 1011.4
20260510103505 49 197 0.0 0.0 0.00 0.14 0.00 92 1011.2
20260510103003 49 197 0.0 0.0 0.00 0.14 0.00 92 1011.2
20260510102504 49 197 0.0 0.0 0.00 0.14 0.00 92 1011.2
20260510102003 49 197 0.0 0.0 0.00 0.14 0.00 92 1011.2
20260510101503 49 197 0.0 0.0 0.00 0.14 0.00 92 1011.2
20260510100505 49 197 0.0 0.0 0.00 0.14 0.00 92 1011.1
20260510100004 49 197 0.0 0.0 0.00 0.14 0.00 92 1010.9
20260510095504 49 197 0.0 0.0 0.00 0.14 0.00 92 1010.8
20260510095004 49 197 0.0 0.0 0.00 0.14 0.00 92 1010.8
20260510094504 49 197 0.0 0.0 0.00 0.14 0.00 92 1010.7
20260510094004 49 197 0.0 0.0 0.00 0.14 0.00 92 1010.8
20260510093504 49 197 0.0 0.0 0.00 0.14 0.00 92 1010.7
20260510093003 49 197 0.0 0.0 0.00 0.14 0.00 92 1010.5
20260510092004 49 197 0.0 0.0 0.00 0.14 0.00 92 1010.5
20260510091503 49 197 0.0 0.0 0.00 0.14 0.00 92 1010.6
20260510091004 49 197 0.0 0.0 0.00 0.14 0.00 92 1010.4
20260510090504 49 197 0.0 0.0 0.00 0.14 0.00 92 1010.5
20260510090003 49 197 0.0 0.0 0.00 0.14 0.00 92 1010.7
20260510085505 49 197 0.0 3.0 0.00 0.14 0.00 92 1010.6
20260510085003 49 197 1.0 3.0 0.00 0.14 0.00 92 1010.7
20260510084503 49 193 1.0 3.0 0.00 0.14 0.00 92 1010.7
20260510084004 49 188 0.0 0.0 0.00 0.14 0.00 92 1010.6
20260510083504 49 188 0.0 0.0 0.00 0.14 0.00 92 1010.8
20260510083004 49 188 0.0 0.0 0.00 0.14 0.00 92 1011.0
20260510082003 49 188 0.0 0.0 0.00 0.14 0.00 92 1011.2
20260510081504 48 188 0.0 0.0 0.00 0.14 0.00 92 1011.2
20260510080503 48 188 0.0 0.0 0.00 0.14 0.00 92 1011.3
20260510080004 48 188 0.0 0.0 0.00 0.14 0.00 92 1011.3
20260510075503 48 188 0.0 0.0 0.00 0.14 0.00 92 1011.3
20260510075004 48 188 0.0 0.0 0.00 0.14 0.00 92 1011.4
20260510074504 48 188 0.0 0.0 0.00 0.14 0.00 92 1011.4
20260510074003 47 188 0.0 0.0 0.00 0.14 0.00 92 1011.6
20260510073504 47 188 0.0 0.0 0.00 0.14 0.00 92 1011.7
20260510073004 47 188 0.0 0.0 0.00 0.15 0.00 92 1011.7
20260510072504 47 188 0.0 0.0 0.00 0.15 0.00 92 1011.7
20260510072004 47 188 0.0 0.0 0.00 0.15 0.00 92 1011.7
20260510071504 46 188 0.0 0.0 0.00 0.15 0.00 92 1011.8
20260510071003 46 188 0.0 0.0 0.00 0.15 0.00 92 1011.9
20260510070004 46 188 0.0 0.0 0.00 0.16 0.00 92 1011.9
20260510065504 46 188 0.0 0.0 0.00 0.16 0.00 92 1011.6
20260510065004 46 188 0.0 0.0 0.00 0.17 0.00 92 1011.1
20260510064503 46 188 0.0 0.0 0.00 0.17 0.00 92 1011.2
20260510064004 46 188 0.0 0.0 0.00 0.17 0.00 92 1011.1
20260510062503 45 188 0.0 0.0 0.00 0.17 0.00 91 1011.2
20260510062004 45 188 0.0 0.0 0.00 0.17 0.00 91 1011.1
20260510061503 45 188 0.0 0.0 0.00 0.17 0.00 91 1011.1
20260510061004 45 188 0.0 0.0 0.00 0.17 0.00 91 1011.3
20260510060503 45 188 0.0 0.0 0.00 0.17 0.00 91 1011.5
20260510060004 45 188 0.0 0.0 0.00 0.17 0.00 91 1011.5
20260510055505 45 188 0.0 0.0 0.00 0.17 0.00 91 1011.5
20260510055004 45 188 0.0 0.0 0.00 0.17 0.00 91 1011.4
20260510054504 45 188 0.0 0.0 0.00 0.17 0.00 91 1011.4
20260510054005 45 188 0.0 0.0 0.00 0.17 0.00 91 1011.3
20260510053504 45 188 0.0 0.0 0.00 0.17 0.00 91 1011.3
20260510052504 45 188 0.0 0.0 0.00 0.17 0.00 91 1010.8
20260510052004 45 188 0.0 0.0 0.00 0.17 0.00 91 1010.5
20260510051504 45 188 0.0 0.0 0.00 0.17 0.00 91 1010.6
20260510051004 45 188 0.0 0.0 0.00 0.17 0.00 91 1010.6
20260510050504 45 188 0.0 0.0 0.00 0.17 0.00 90 1010.7
20260510050004 45 188 0.0 0.0 0.00 0.17 0.00 91 1010.8
20260510045004 46 188 0.0 0.0 0.00 0.17 0.00 90 1010.9
20260510044504 46 188 0.0 0.0 0.00 0.17 0.00 90 1011.0
20260510044004 46 188 0.0 0.0 0.00 0.17 0.00 90 1010.9
20260510043504 46 188 0.0 0.0 0.00 0.17 0.00 90 1011.0
20260510043004 46 188 0.0 0.0 0.00 0.17 0.00 90 1010.9
20260510042504 46 188 0.0 0.0 0.00 0.17 0.00 90 1010.8
20260510042005 46 188 0.0 0.0 0.00 0.17 0.00 90 1010.7
20260510041504 46 188 0.0 0.0 0.00 0.17 0.00 90 1010.8
20260510041004 47 188 0.0 0.0 0.00 0.17 0.00 90 1010.7
20260510040504 47 188 0.0 0.0 0.00 0.17 0.00 90 1010.8
20260510040004 47 188 0.0 0.0 0.00 0.17 0.00 90 1010.8
20260510035504 47 188 0.0 0.0 0.00 0.17 0.17 90 1010.6
20260510035004 47 188 0.0 0.0 0.00 0.17 0.17 90 1010.6
20260510034504 47 188 0.0 0.0 0.00 0.17 0.17 90 1010.5
20260510034004 47 188 0.0 0.0 0.00 0.17 0.17 90 1010.4
20260510033504 47 188 0.0 0.0 0.00 0.17 0.17 90 1010.5
20260510032504 48 188 0.0 0.0 0.00 0.17 0.17 90 1010.6
20260510032004 48 188 0.0 0.0 0.00 0.17 0.17 90 1010.6
20260510031505 48 188 0.0 0.0 0.00 0.17 0.17 90 1010.6
20260510030504 48 188 0.0 0.0 0.00 0.17 0.17 90 1010.6
20260510030005 48 188 0.0 0.0 0.00 0.17 0.17 90 1010.6
20260510025504 49 188 0.0 0.0 0.00 0.17 0.17 90 1010.7
20260510025004 49 188 0.0 0.0 0.00 0.17 0.17 90 1010.6
20260510024504 49 188 0.0 0.0 0.00 0.17 0.17 90 1010.6
20260510024004 49 188 0.0 0.0 0.00 0.17 0.17 90 1010.6
20260510023504 49 188 0.0 0.0 0.00 0.17 0.17 89 1010.7
20260510023004 49 188 0.0 0.0 0.00 0.17 0.17 90 1010.7
20260510022505 50 188 0.0 0.0 0.00 0.17 0.17 89 1010.6
20260510022004 50 188 0.0 0.0 0.00 0.17 0.17 89 1010.6
20260510021504 50 188 0.0 0.0 0.00 0.17 0.17 89 1010.5
20260510021004 50 188 0.0 0.0 0.00 0.17 0.17 89 1010.4
20260510020504 51 188 0.0 0.0 0.00 0.17 0.17 89 1010.5
20260510020005 51 188 0.0 0.0 0.00 0.17 0.17 89 1010.5
20260510015504 51 188 0.0 0.0 0.00 0.17 0.17 89 1010.4
20260510015003 51 188 0.0 0.0 0.00 0.17 0.17 89 1010.4
20260510014503 51 188 0.0 0.0 0.00 0.17 0.17 89 1010.4
20260510014004 52 188 0.0 0.0 0.00 0.17 0.17 89 1010.3
20260510013503 52 188 0.0 0.0 0.00 0.17 0.17 89 1010.4
20260510013004 52 188 0.0 0.0 0.00 0.17 0.17 89 1010.4
20260510012504 52 188 0.0 0.0 0.00 0.17 0.17 89 1010.3
20260510011504 52 188 0.0 0.0 0.00 0.17 0.17 88 1010.2
20260510010004 53 188 0.0 0.0 0.00 0.17 0.17 88 1009.9
20260510005504 53 188 0.0 0.0 0.00 0.17 0.17 88 1009.8
20260510005005 53 188 0.0 1.0 0.00 0.17 0.17 88 1009.8
20260510004504 53 188 0.0 0.0 0.00 0.17 0.17 88 1009.8
20260510004004 53 188 1.0 5.0 0.00 0.17 0.17 88 1009.7
20260510003504 53 158 0.0 3.0 0.00 0.17 0.17 88 1009.7
20260510003004 53 219 1.0 6.0 0.00 0.17 0.17 88 1009.7
20260510002504 54 232 0.0 3.0 0.00 0.17 0.17 88 1009.6
20260510002004 54 218 1.0 2.0 0.00 0.17 0.17 88 1009.4
20260510001504 54 212 1.0 3.0 0.00 0.17 0.17 88 1009.4
20260510001004 54 208 1.0 5.0 0.00 0.17 0.17 88 1009.4
20260510000004 54 167 0.0 2.0 0.00 0.17 0.17 88 1009.4
20260509235503 54 157 1.0 7.0 0.00 0.17 0.17 88 1009.4
20260509235005 54 246 0.0 2.0 0.00 0.17 0.17 88 1009.3
20260509234504 54 246 0.0 0.0 0.00 0.17 0.17 88 1009.3
20260509234004 54 246 0.0 3.0 0.00 0.17 0.17 88 1009.3
20260509233504 55 245 0.0 0.0 0.00 0.17 0.17 88 1009.1
20260509232504 55 245 0.0 0.0 0.00 0.17 0.17 88 1009.1
20260509232004 55 245 0.0 3.0 0.00 0.17 0.17 88 1009.2
20260509231504 55 248 0.0 0.0 0.00 0.17 0.17 89 1009.2
20260509231004 55 248 0.0 0.0 0.00 0.17 0.17 89 1009.2
20260509230504 55 248 0.0 0.0 0.00 0.17 0.17 89 1009.2
20260509230004 55 248 0.0 0.0 0.00 0.17 0.17 89 1009.3
20260509225504 55 248 0.0 0.0 0.00 0.17 0.17 89 1009.3
20260509225004 55 248 0.0 0.0 0.00 0.17 0.17 89 1009.3
20260509224504 54 248 0.0 0.0 0.00 0.17 0.17 89 1009.4
20260509223504 54 248 0.0 0.0 0.00 0.17 0.17 89 1009.4
20260509223004 54 248 0.0 1.0 0.00 0.17 0.17 89 1009.3
20260509222503 54 248 0.0 2.0 0.01 0.17 0.17 89 1009.2
20260509222004 54 248 0.0 2.0 0.01 0.17 0.17 89 1009.3
20260509221504 54 248 0.0 1.0 0.01 0.17 0.17 89 1009.3
20260509220504 55 248 0.0 0.0 0.01 0.17 0.17 90 1009.3
20260509215504 54 248 0.0 0.0 0.01 0.17 0.17 90 1009.5
20260509214504 55 248 0.0 3.0 0.01 0.17 0.17 90 1009.7
20260509214003 55 249 0.0 0.0 0.02 0.17 0.17 90 1009.7
20260509213504 55 249 0.0 0.0 0.02 0.17 0.17 90 1009.8
20260509213004 54 249 0.0 0.0 0.03 0.17 0.17 90 1009.8
20260509212503 54 249 0.0 0.0 0.02 0.16 0.16 90 1009.9
20260509211503 54 249 0.0 0.0 0.03 0.16 0.16 90 1009.8
20260509211004 54 249 0.0 0.0 0.04 0.16 0.16 90 1009.9
20260509210504 54 249 0.0 0.0 0.04 0.16 0.16 90 1009.9
20260509210004 54 249 0.0 0.0 0.04 0.16 0.16 90 1009.9
20260509205504 54 249 0.0 0.0 0.04 0.16 0.16 90 1009.9
20260509204504 54 250 0.0 0.0 0.04 0.16 0.16 90 1009.9
20260509203504 54 250 1.0 3.0 0.04 0.15 0.15 89 1010.1
20260509203004 54 250 0.0 0.0 0.03 0.14 0.14 90 1010.2
20260509202504 54 250 0.0 0.0 0.03 0.14 0.14 90 1010.3
20260509202004 54 250 0.0 0.0 0.02 0.13 0.13 90 1010.3
20260509201504 54 250 0.0 3.0 0.03 0.13 0.13 89 1010.4
20260509201003 54 250 0.0 0.0 0.02 0.12 0.12 89 1010.4
20260509200503 54 250 0.0 0.0 0.02 0.12 0.12 89 1010.4
20260509200004 54 250 0.0 3.0 0.02 0.12 0.12 89 1010.5
20260509195503 54 250 0.0 3.0 0.03 0.12 0.12 89 1010.5
20260509195004 54 271 0.0 0.0 0.03 0.12 0.12 89 1010.6
20260509194504 54 271 0.0 2.0 0.04 0.12 0.12 89 1010.7
20260509194003 54 271 0.0 2.0 0.04 0.12 0.12 89 1010.7
20260509193504 54 272 1.0 3.0 0.04 0.11 0.11 89 1010.7
20260509193003 55 275 0.0 3.0 0.04 0.11 0.11 89 1010.8
20260509192504 55 275 0.0 0.0 0.05 0.11 0.11 89 1010.9
20260509191003 55 277 1.0 5.0 0.04 0.10 0.10 89 1011.1
20260509190504 55 253 0.0 2.0 0.04 0.10 0.10 89 1011.1
20260509190004 55 253 0.0 3.0 0.04 0.10 0.10 89 1011.0
20260509185503 56 257 1.0 3.0 0.04 0.09 0.09 89 1011.3
20260509185004 56 257 0.0 3.0 0.04 0.09 0.09 89 1011.4
20260509184504 56 257 1.0 3.0 0.04 0.08 0.08 89 1011.5
20260509184004 56 255 0.0 3.0 0.04 0.08 0.08 89 1011.6
20260509183504 56 255 0.0 3.0 0.03 0.07 0.07 89 1011.5
20260509182503 56 256 1.0 3.0 0.02 0.06 0.06 89 1011.4
20260509182003 56 256 0.0 1.0 0.02 0.06 0.06 89 1011.3
20260509181503 56 256 1.0 3.0 0.02 0.06 0.06 89 1011.3
20260509181004 56 257 0.0 0.0 0.02 0.06 0.06 89 1011.2
20260509180504 56 257 0.0 1.0 0.02 0.06 0.06 88 1011.2
20260509180004 56 257 0.0 2.0 0.02 0.06 0.06 88 1011.2
20260509175004 56 263 1.0 3.0 0.01 0.05 0.05 87 1011.1
20260509174504 56 244 0.0 2.0 0.00 0.04 0.04 87 1011.1
20260509174004 57 244 1.0 3.0 0.00 0.04 0.04 87 1010.9
20260509173505 57 91 0.0 0.0 0.00 0.04 0.04 87 1010.7
20260509173004 57 91 0.0 0.0 0.00 0.04 0.04 87 1010.7
20260509172504 57 91 0.0 0.0 0.00 0.04 0.04 87 1010.6
20260509172004 57 91 0.0 0.0 0.00 0.04 0.04 87 1010.6
20260509171504 57 91 0.0 0.0 0.00 0.04 0.04 86 1010.7
20260509171004 57 91 0.0 0.0 0.00 0.04 0.04 86 1010.7
20260509170504 56 91 0.0 0.0 0.00 0.04 0.04 86 1010.7
20260509170004 56 91 0.0 0.0 0.00 0.04 0.04 86 1010.7
20260509165504 56 91 0.0 0.0 0.00 0.04 0.04 86 1010.8
20260509165004 56 91 0.0 0.0 0.00 0.04 0.04 86 1010.9
20260509164505 56 91 0.0 0.0 0.00 0.04 0.04 86 1011.0
20260509163004 56 91 0.0 0.0 0.00 0.04 0.04 86 1011.2
20260509162504 56 91 0.0 0.0 0.00 0.04 0.04 87 1011.2
20260509162005 55 91 0.0 0.0 0.01 0.04 0.04 87 1011.2
20260509161004 55 91 0.0 0.0 0.01 0.04 0.04 87 1011.2
20260509160504 55 91 0.0 0.0 0.01 0.04 0.04 87 1011.3
20260509160004 55 91 0.0 0.0 0.01 0.04 0.04 87 1011.5
20260509155504 55 91 0.0 0.0 0.01 0.04 0.04 86 1011.6
20260509155004 55 91 0.0 0.0 0.01 0.04 0.04 86 1011.7
20260509154504 55 91 0.0 0.0 0.01 0.04 0.04 86 1011.8
20260509154004 55 91 0.0 0.0 0.01 0.04 0.04 86 1011.8
20260509153504 54 91 0.0 0.0 0.01 0.04 0.04 86 1012.0
20260509153004 54 91 0.0 0.0 0.01 0.04 0.04 86 1012.0
20260509152504 54 91 0.0 0.0 0.01 0.04 0.04 86 1012.0
20260509152004 54 91 0.0 0.0 0.00 0.03 0.03 86 1012.1
20260509151504 54 91 0.0 0.0 0.00 0.03 0.03 86 1012.0
20260509151005 54 91 0.0 0.0 0.00 0.03 0.03 86 1011.8
20260509150504 54 91 0.0 0.0 0.00 0.03 0.03 85 1011.9
20260509150004 54 91 0.0 0.0 0.00 0.03 0.03 86 1011.9
20260509145505 54 91 0.0 0.0 0.00 0.03 0.03 86 1011.8
20260509145004 53 91 0.0 0.0 0.00 0.03 0.03 86 1011.7
20260509144004 53 91 0.0 0.0 0.00 0.03 0.03 88 1011.7
20260509143504 53 91 0.0 0.0 0.00 0.03 0.03 88 1011.6
20260509143004 53 91 0.0 0.0 0.00 0.03 0.03 87 1011.6